Location: Rounton
(54.4000°N, 1.3500°W)
Time: 07:44:15
(UTC+00:00)

Vanguard 1 - Pass Details

Date: 07 December 2021
Orbit: 652 x 3830 km, 34.2° (Epoch: 16 January)

Event Time Altitude Azimuth Distance (km) Brightness Sun altitude
Rises 23:29:12 0° 229° (SW) 7,029 - -57.9°
Reaches altitude 10° 23:34:00 10° 222° (SW) 6,334 - -58.0°
Maximum altitude 23:52:50 39° 163° (SSE) 4,914 - -58.3°
Exits shadow 00:09:14 15° 110° (ESE) 6,056 13.9 -58.2°
Drops below altitude 10° 00:11:48 10° 105° (ESE) 6,391 14.1 -58.2°
Sets 00:16:38 0° 99° (E) 7,098 14.5 -58.1°
